�������l�o���
Date,Time,MP-1(��Sv/h),MP-2(��Sv/h),MP-3(��Sv/h),MP-4(��Sv/h),MP-5(��Sv/h),MP-6(��Sv/h),MP-7(��Sv/h),MP-8(��Sv/h),����,����(m/s),���J
2023/06/13,00:00,0.525,0.781,0.481,0.944,0.684,0.319,0.560,0.530,�k,1.7,�L
2023/06/13,00:10,0.528,0.782,0.483,0.943,0.684,0.319,0.561,0.530,�k,2.3,�L
2023/06/13,00:20,0.524,0.781,0.480,0.945,0.683,0.318,0.560,0.529,�k�k��,1.7,�L
2023/06/13,00:30,0.527,0.782,0.481,0.944,0.683,0.319,0.560,0.529,�k,2.5,�L
2023/06/13,00:40,0.527,0.781,0.481,0.946,0.685,0.319,0.560,0.529,�k,2.8,�L
2023/06/13,00:50,0.524,0.781,0.479,0.944,0.684,0.319,0.558,0.531,�k�k��,2.6,�L
2023/06/13,01:00,0.524,0.780,0.479,0.944,0.683,0.320,0.559,0.528,�k��,1.7,�L
2023/06/13,01:10,0.525,0.780,0.480,0.945,0.683,0.320,0.558,0.529,�k�k��,1.9,�L
2023/06/13,01:20,0.526,0.782,0.480,0.945,0.682,0.320,0.559,0.528,�k�k��,2.8,�L
2023/06/13,01:30,0.524,0.779,0.478,0.944,0.682,0.320,0.557,0.529,�k�k��,3.0,�L
2023/06/13,01:40,0.523,0.776,0.480,0.942,0.681,0.319,0.556,0.527,�k,3.4,�L
2023/06/13,01:50,0.523,0.774,0.480,0.943,0.679,0.321,0.558,0.529,�k�k��,3.5,�L
2023/06/13,02:00,0.523,0.775,0.478,0.942,0.678,0.319,0.557,0.528,�k�k��,3.5,�L
2023/06/13,02:10,0.521,0.778,0.479,0.942,0.679,0.319,0.558,0.528,�k�k��,2.9,��
2023/06/13,02:20,0.524,0.776,0.479,0.943,0.678,0.321,0.557,0.529,�k,2.5,�L
2023/06/13,02:30,0.521,0.775,0.479,0.944,0.679,0.318,0.557,0.529,�k�k��,3.4,�L
2023/06/13,02:40,0.524,0.778,0.477,0.941,0.677,0.318,0.557,0.528,�k�k��,3.4,�L
2023/06/13,02:50,0.522,0.776,0.478,0.939,0.678,0.319,0.558,0.529,�k�k��,4.1,�L
2023/06/13,03:00,0.523,0.772,0.477,0.940,0.678,0.318,0.558,0.528,�k�k��,3.2,�L
2023/06/13,03:10,0.521,0.773,0.478,0.940,0.677,0.317,0.557,0.529,�k,3.7,�L
2023/06/13,03:20,0.521,0.774,0.477,0.942,0.677,0.320,0.559,0.527,�k�k��,3.2,�L
2023/06/13,03:30,0.522,0.773,0.476,0.942,0.676,0.318,0.556,0.528,�k,3.5,�L
2023/06/13,03:40,0.520,0.772,0.476,0.940,0.678,0.318,0.556,0.527,�k,3.8,�L
2023/06/13,03:50,0.520,0.772,0.476,0.941,0.677,0.318,0.557,0.526,�k�k��,4.1,�L
2023/06/13,04:00,0.521,0.769,0.478,0.939,0.674,0.316,0.555,0.524,�k,5.2,�L
2023/06/13,04:10,0.520,0.768,0.476,0.941,0.670,0.317,0.556,0.526,�k�k��,5.0,�L
2023/06/13,04:20,0.520,0.769,0.475,0.939,0.673,0.318,0.555,0.525,�k�k��,5.6,�L
2023/06/13,04:30,0.518,0.769,0.475,0.937,0.673,0.318,0.556,0.524,�k�k��,5.1,�L
2023/06/13,04:40,0.519,0.767,0.474,0.938,0.672,0.316,0.556,0.527,�k�k��,5.6,�L
2023/06/13,04:50,0.519,0.767,0.472,0.939,0.671,0.318,0.556,0.526,�k�k��,5.1,�L
2023/06/13,05:00,0.519,0.767,0.475,0.937,0.672,0.318,0.556,0.525,�k�k��,5.3,�L
2023/06/13,05:10,0.520,0.768,0.474,0.938,0.673,0.317,0.555,0.524,�k�k��,5.2,�L
2023/06/13,05:20,0.521,0.768,0.475,0.939,0.672,0.317,0.557,0.525,�k�k��,4.6,�L
2023/06/13,05:30,0.519,0.769,0.475,0.936,0.674,0.317,0.555,0.525,�k,4.7,�L
2023/06/13,05:40,0.519,0.769,0.477,0.937,0.672,0.317,0.556,0.527,�k�k��,4.6,�L
2023/06/13,05:50,0.520,0.768,0.475,0.939,0.671,0.317,0.556,0.527,�k,4.4,��
2023/06/13,06:00,0.521,0.770,0.476,0.939,0.673,0.317,0.557,0.525,�k�k��,4.7,�L
2023/06/13,06:10,0.520,0.769,0.476,0.937,0.675,0.318,0.558,0.526,�k,5.2,�L
2023/06/13,06:20,0.518,0.768,0.474,0.939,0.674,0.318,0.559,0.527,�k,4.9,�L
2023/06/13,06:30,0.519,0.769,0.476,0.938,0.676,0.317,0.557,0.528,�k,5.3,�L
2023/06/13,06:40,0.520,0.768,0.475,0.938,0.673,0.317,0.558,0.528,�k,4.7,�L
2023/06/13,06:50,0.518,0.768,0.476,0.938,0.672,0.316,0.558,0.526,�k,5.0,�L
2023/06/13,07:00,0.520,0.770,0.476,0.936,0.673,0.318,0.557,0.524,�k�k��,5.6,�L
2023/06/13,07:10,0.520,0.768,0.474,0.936,0.672,0.317,0.557,0.527,�k�k��,5.2,�L
2023/06/13,07:20,0.520,0.769,0.476,0.938,0.671,0.317,0.557,0.525,�k�k��,5.4,�L
2023/06/13,07:30,0.518,0.769,0.475,0.937,0.673,0.316,0.558,0.525,�k�k��,5.9,��
2023/06/13,07:40,0.521,0.769,0.475,0.939,0.673,0.316,0.557,0.526,�k�k��,5.9,�L
2023/06/13,07:50,0.520,0.769,0.475,0.937,0.672,0.318,0.557,0.524,�k�k��,6.0,�L
2023/06/13,08:00,0.518,0.766,0.474,0.936,0.674,0.318,0.557,0.526,�k�k��,5.0,�L
2023/06/13,08:10,0.518,0.766,0.472,0.934,0.673,0.317,0.554,0.522,���k��,2.3,�L
2023/06/13,08:20,0.517,0.767,0.475,0.933,0.673,0.316,0.554,0.522,�k�k��,5.0,�L
2023/06/13,08:30,0.518,0.767,0.474,0.932,0.670,0.316,0.555,0.522,�k�k��,5.3,��
2023/06/13,08:40,0.518,0.769,0.473,0.931,0.671,0.316,0.555,0.523,�k�k��,5.6,��
2023/06/13,08:50,0.519,0.767,0.474,0.932,0.672,0.316,0.557,0.523,�k�k��,5.8,��
2023/06/13,09:00,0.519,0.768,0.474,0.933,0.672,0.317,0.555,0.522,�k�k��,5.9,��
2023/06/13,09:10,0.519,0.767,0.471,0.933,0.672,0.316,0.556,0.522,�k�k��,6.1,��
2023/06/13,09:20,0.520,0.769,0.473,0.932,0.670,0.317,0.556,0.522,�k�k��,5.6,��
2023/06/13,09:30,0.519,0.769,0.473,0.933,0.672,0.317,0.556,0.523,�k�k��,5.5,��
2023/06/13,09:40,0.520,0.770,0.473,0.932,0.673,0.316,0.556,0.525,�k�k��,7.4,��
2023/06/13,09:50,0.520,0.770,0.475,0.933,0.674,0.316,0.557,0.523,�k,6.3,��
2023/06/13,10:00,0.522,0.770,0.474,0.933,0.674,0.318,0.556,0.523,�k,6.1,��
2023/06/13,10:10,0.521,0.769,0.475,0.931,0.676,0.318,0.557,0.524,�k,5.8,��
2023/06/13,10:20,0.520,0.772,0.474,0.932,0.676,0.317,0.556,0.522,�k�k��,5.2,��
2023/06/13,10:30,0.521,0.770,0.475,0.931,0.677,0.317,0.557,0.524,�k,5.5,��
2023/06/13,10:40,0.521,0.773,0.476,0.932,0.676,0.317,0.558,0.527,�k,5.1,��
2023/06/13,10:50,0.523,0.773,0.476,0.933,0.677,0.318,0.557,0.525,�k,4.8,��
2023/06/13,11:00,0.524,0.772,0.477,0.929,0.676,0.317,0.557,0.525,�k,5.5,��
2023/06/13,11:10,0.523,0.775,0.475,0.932,0.676,0.318,0.558,0.526,�k�k��,6.3,��
2023/06/13,11:20,0.523,0.772,0.477,0.935,0.676,0.318,0.556,0.524,�k,5.9,��
2023/06/13,11:30,0.524,0.773,0.476,0.933,0.678,0.318,0.558,0.525,�k,5.4,��
2023/06/13,11:40,0.524,0.776,0.476,0.934,0.677,0.320,0.557,0.526,�k,5.6,��
2023/06/13,11:50,0.524,0.776,0.478,0.937,0.679,0.319,0.558,0.527,�k,6.5,��
2023/06/13,12:00,0.525,0.774,0.479,0.936,0.678,0.318,0.558,0.527,�k�k��,5.2,��
2023/06/13,12:10,0.525,0.777,0.479,0.935,0.679,0.319,0.557,0.527,�k�k��,5.9,��
2023/06/13,12:20,0.523,0.777,0.478,0.934,0.678,0.320,0.559,0.527,�k�k��,6.1,��
2023/06/13,12:30,0.524,0.776,0.479,0.936,0.681,0.319,0.558,0.527,�k�k��,5.8,��
2023/06/13,12:40,0.523,0.776,0.478,0.937,0.679,0.318,0.561,0.526,�k�k��,5.6,��
2023/06/13,12:50,0.523,0.778,0.479,0.937,0.680,0.320,0.558,0.527,�k�k��,5.5,��
2023/06/13,13:00,0.526,0.777,0.480,0.936,0.680,0.319,0.561,0.527,�k�k��,5.1,��
2023/06/13,13:10,0.525,0.777,0.480,0.937,0.683,0.317,0.559,0.528,�k�k��,5.1,��
2023/06/13,13:20,0.526,0.778,0.479,0.936,0.683,0.318,0.559,0.527,�k�k��,5.4,��
2023/06/13,13:30,0.524,0.778,0.479,0.939,0.684,0.318,0.559,0.527,�k�k��,5.2,��
2023/06/13,13:40,0.526,0.780,0.479,0.938,0.682,0.319,0.559,0.528,�k�k��,4.9,��
2023/06/13,13:50,0.526,0.780,0.481,0.936,0.683,0.320,0.559,0.527,�k�k��,5.0,��
2023/06/13,14:00,0.526,0.779,0.480,0.939,0.681,0.318,0.559,0.528,�k�k��,4.1,��
2023/06/13,14:10,0.528,0.780,0.480,0.938,0.684,0.320,0.560,0.529,�k�k��,3.9,��
2023/06/13,14:20,0.526,0.780,0.481,0.939,0.683,0.319,0.560,0.528,�k�k��,4.0,��
2023/06/13,14:30,0.524,0.781,0.481,0.939,0.683,0.320,0.561,0.527,�k�k��,4.2,��
2023/06/13,14:40,0.526,0.780,0.481,0.939,0.684,0.320,0.561,0.528,�k��,4.1,��
2023/06/13,14:50,0.526,0.778,0.480,0.938,0.684,0.320,0.561,0.528,�k�k��,3.7,��
2023/06/13,15:00,0.527,0.783,0.480,0.938,0.683,0.319,0.560,0.529,���k��,3.2,��
2023/06/13,15:10,0.527,0.780,0.480,0.941,0.684,0.320,0.560,0.528,�k�k��,2.6,��
2023/06/13,15:20,0.527,0.782,0.481,0.938,0.684,0.320,0.561,0.528,�k��,3.2,��
2023/06/13,15:30,0.528,0.780,0.480,0.941,0.683,0.319,0.560,0.528,�k��,2.8,��
2023/06/13,15:40,0.527,0.783,0.481,0.939,0.683,0.319,0.562,0.529,�k�k��,3.5,��
2023/06/13,15:50,0.526,0.782,0.481,0.940,0.685,0.320,0.561,0.528,�k�k��,3.4,��
2023/06/13,16:00,0.527,0.781,0.482,0.941,0.684,0.319,0.561,0.528,�k�k��,3.3,��
2023/06/13,16:10,0.527,0.781,0.481,0.940,0.684,0.319,0.560,0.528,�k�k��,2.3,��
2023/06/13,16:20,0.527,0.781,0.479,0.940,0.684,0.319,0.561,0.529,�k,1.7,�L
2023/06/13,16:30,0.526,0.783,0.480,0.940,0.686,0.319,0.562,0.528,�k��,1.1,�L
2023/06/13,16:40,0.528,0.783,0.480,0.940,0.686,0.318,0.561,0.528,�k�k��,1.2,�L
2023/06/13,16:50,0.528,0.783,0.481,0.941,0.685,0.320,0.561,0.529,�k��,0.6,�L
2023/06/13,17:00,0.529,0.785,0.482,0.940,0.685,0.321,0.563,0.529,�k��,0.9,�L
2023/06/13,17:10,0.527,0.784,0.483,0.939,0.687,0.319,0.561,0.528,�k�k��,0.6,��
2023/06/13,17:20,0.529,0.780,0.482,0.943,0.687,0.319,0.562,0.528,���쓌,1.2,��
2023/06/13,17:30,0.530,0.783,0.483,0.943,0.686,0.320,0.562,0.530,�쓌,1.5,��
2023/06/13,17:40,0.527,0.784,0.482,0.941,0.687,0.319,0.559,0.530,��쓌,1.7,��
2023/06/13,17:50,0.528,0.784,0.482,0.944,0.685,0.320,0.561,0.529,��,0.9,��
2023/06/13,18:00,0.529,0.785,0.484,0.943,0.686,0.321,0.560,0.527,��쓌,1.4,��
2023/06/13,18:10,0.529,0.783,0.481,0.941,0.687,0.318,0.561,0.529,�쓌,1.7,��
2023/06/13,18:20,0.530,0.785,0.483,0.942,0.687,0.320,0.562,0.530,���쓌,1.2,��
2023/06/13,18:30,0.529,0.786,0.483,0.943,0.686,0.320,0.560,0.532,�쓌,3.2,��
2023/06/13,18:40,0.529,0.782,0.481,0.944,0.687,0.321,0.562,0.532,�쓌,3.9,��
2023/06/13,18:50,0.528,0.784,0.484,0.945,0.686,0.319,0.563,0.530,��쓌,4.2,��
2023/06/13,19:00,0.528,0.785,0.482,0.943,0.686,0.320,0.564,0.530,��쓌,4.5,��
2023/06/13,19:10,0.529,0.784,0.482,0.944,0.686,0.320,0.563,0.530,��,5.6,��
2023/06/13,19:20,0.528,0.786,0.481,0.945,0.687,0.320,0.564,0.530,��,6.3,��
2023/06/13,19:30,0.527,0.786,0.483,0.943,0.686,0.320,0.563,0.531,��,5.3,��
2023/06/13,19:40,0.528,0.784,0.484,0.945,0.687,0.321,0.565,0.531,��,5.8,��
2023/06/13,19:50,0.528,0.787,0.481,0.946,0.688,0.321,0.563,0.529,��,6.6,��
2023/06/13,20:00,0.528,0.786,0.483,0.944,0.687,0.320,0.564,0.531,��,6.9,��
2023/06/13,20:10,0.526,0.787,0.483,0.945,0.687,0.321,0.564,0.530,��,6.8,��
2023/06/13,20:20,0.527,0.787,0.481,0.945,0.687,0.321,0.563,0.530,��,6.5,��
2023/06/13,20:30,0.527,0.785,0.483,0.944,0.689,0.321,0.564,0.530,��,6.7,��
2023/06/13,20:40,0.528,0.786,0.484,0.945,0.689,0.321,0.564,0.529,��,6.3,��
2023/06/13,20:50,0.526,0.786,0.484,0.944,0.687,0.321,0.563,0.530,��,7.8,��
2023/06/13,21:00,0.528,0.785,0.484,0.944,0.689,0.320,0.565,0.530,��,6.8,��
2023/06/13,21:10,0.528,0.784,0.484,0.945,0.687,0.320,0.564,0.530,��,6.0,��
2023/06/13,21:20,0.528,0.787,0.484,0.946,0.688,0.321,0.565,0.529,��,5.5,��
2023/06/13,21:30,0.530,0.787,0.484,0.945,0.686,0.320,0.564,0.530,��,4.6,��
2023/06/13,21:40,0.527,0.788,0.483,0.944,0.689,0.321,0.564,0.533,��,3.7,��
2023/06/13,21:50,0.529,0.788,0.484,0.945,0.688,0.322,0.564,0.532,��,3.0,��
2023/06/13,22:00,0.529,0.787,0.485,0.944,0.688,0.322,0.565,0.529,��,1.7,��
2023/06/13,22:10,0.529,0.786,0.483,0.946,0.689,0.321,0.565,0.529,��쐼,1.1,��
2023/06/13,22:20,0.530,0.786,0.483,0.946,0.689,0.323,0.564,0.531,���쐼,0.8,��
2023/06/13,22:30,0.529,0.787,0.484,0.946,0.688,0.322,0.565,0.529,��,0.9,��
2023/06/13,22:40,0.530,0.786,0.486,0.944,0.689,0.323,0.565,0.532,���k��,1.7,��
2023/06/13,22:50,0.530,0.789,0.484,0.945,0.689,0.323,0.564,0.531,�k��,2.0,��
2023/06/13,23:00,0.529,0.787,0.485,0.946,0.689,0.322,0.563,0.531,�k��,3.6,��
2023/06/13,23:10,0.530,0.788,0.484,0.948,0.689,0.323,0.564,0.531,�k��,3.9,��
2023/06/13,23:20,0.530,0.788,0.485,0.946,0.690,0.322,0.565,0.531,�k��,3.6,��
2023/06/13,23:30,0.532,0.788,0.485,0.947,0.690,0.322,0.564,0.531,���k��,2.6,��
2023/06/13,23:40,0.529,0.787,0.485,0.949,0.689,0.324,0.565,0.530,�k��,2.6,��
2023/06/13,23:50,0.531,0.788,0.485,0.947,0.689,0.321,0.564,0.530,�k��,2.6,��
